CZ-6A DEB, 61124

Orbit data source: Space-Track

CZ-6A DEB, 61124 is space debris in LEO originally from a launch on Tue, 06 Aug 2024 UTC launched from the Taiyaun Space Center, China (TSC). Debris objects in space refer to the collection of defunct objects orbiting the Earth. Examples of debris include non-operational satellites, rocket bodies, and fragments generated from explosions, collisions, or faulty payload assembly.

Loading next visibility...
Identifier
61124, 2024-140PS
Orbit
LEO
Country
Flag of CNCN / PRC
Related business
Manufacturer
SAST
Mission
Spacecraft
Bus & Motor
Unknown
Mass
Unknown
Launch date (UTC)
2024-08-06 (2 years ago)
Launch vehicle
Unknown
Launch site
Taiyaun Space Center, China (TSC)
Object type
Payload
Rocket body
Debris
Shape & HBR
Unknown shape, 0.1 m
Radar Cross Section
Small (<0.1 m²)

Expand to show TLE details & history
Last TLE update: 16 hours ago

TLE from 16 hours ago
0 CZ-6A DEB
1 61124U 24140PS  26118.40527911  .00002277  00000-0  26526-3 0  9994
2 61124  88.9941 273.8362 0174015   6.2842 354.0501 14.74507133 90424
Epoch: 2026-04-28T09:43Z
TLE epoch observation values (Epoch: 2026-04-28T09:43:36.115Z)
Latitude
-0.00008°
Longitude
-88.44534°
Altitude
528.26 km
Speed
7.664 km/s
True Right ascension
18h 15m 20s
True Declination
0° 00' 00"
Sunlit
Object was in full shadow at epoch
Visualization orbit readout
Latitude
Unknown
Longitude
Unknown
Altitude
Unknown
Speed
Unknown
Apparent Right ascension
Unknown
Apparent Declination
Unknown
Sunlit
N/A
Visualization observer readout
Local Sidereal Time
09:13:31
Azimuth
Unknown
Elevation
Unknown
Doppler factor
Unknown
Orbital elements
Apogee altitude
765.777 km
Perigee altitude
521.4 km
Semi-major axis
7,021.725 km
Eccentricity
0.0174
Inclination
88.9941°
RAAN
273.8362°
Arg. of periapsis
6.2842°
True anomaly
353.83883°
Mean anomaly
354.0501°
Eccentric anomaly
353.94493°
Mean motion
3.68873 °/min
Orbital period
97.59 mins
BSTAR
0.00026526
Loading maneuver chart data...
Computing Atmospheric mass density...
Loading historical data...
Loading historical data...
Loading historical data...
Loading historical data...
Loading historical data...
Loading historical data...
Loading historical data...

Documentation

Showing up to 5 results
|